Regional Weather Roundup
Issued by NWS Charleston, WV

Home | Current Version | Previous Version | Text Only | Print | Product List | Glossary Off
Versions: 1 2 3 4 5 6 7 8 9 10 11 12 13 14 15 16 17 18 19 20 21 22 23 24 25 26 27 28 29 30 31 32 33 34 35 36 37 38 39 40 41 42 43 44 45 46 47 48 49 50

000
ASUS41 KRLX 311810
RWRRLX
West Virginia Regional Weather Roundup
National Weather Service Charleston WV
200 PM EDT TUE MAY 31 2016

Note: "fair" indicates few or no clouds below 12,000 feet with no
significant weather and/or obstructions to visibility.

WVZ003-311900-
Northern Panhandle of West Virginia

CITY           SKY/WX    TMP DP  RH WIND       PRES   REMARKS
WHEELING         N/A     83  57  41 W6        30.01F
$$

WVZ009-311900-
Northwest West Virginia

CITY           SKY/WX    TMP DP  RH WIND       PRES   REMARKS
PARKERSBURG      N/A     84  55  36 S7        30.02F
$$

WVZ006-311900-
Western West Virginia

CITY           SKY/WX    TMP DP  RH WIND       PRES   REMARKS
HUNTINGTON       N/A     85  59  41 VRB5      29.99F
$$

WVZ015-311900-
West Central West Virginia

CITY           SKY/WX    TMP DP  RH WIND       PRES   REMARKS
CHARLESTON       N/A     87  53  31 E10       29.99F
$$

WVZ022-031-311900-
North Central West Virginia

CITY           SKY/WX    TMP DP  RH WIND       PRES   REMARKS
CLARKSBURG       N/A     83  53  35 VRB3      30.01F
MORGANTOWN       N/A     84  54  35 VRB5      30.02F
$$

WVZ025-035-042-045-311900-
Southern West Virginia

CITY           SKY/WX    TMP DP  RH WIND       PRES   REMARKS
BECKLEY          N/A     78  55  44 CALM      30.06F
LOGAN            N/A     84  57  39 CALM      30.01F
BLUEFIELD        N/A     75  57  53 E8        30.08F
LEWISBURG        N/A     78  58  50 SW3       30.05F
$$

WVZ047-311900-
Northern Mountains of West Virginia

CITY           SKY/WX    TMP DP  RH WIND       PRES   REMARKS
ELKINS           N/A     81  46  29 VRB5      30.05F
$$

WVZ052-311900-
Eastern Panhandle of West Virginia

CITY           SKY/WX    TMP DP  RH WIND       PRES   REMARKS
MARTINSBURG    PTSUNNY   82  58  43 NE6       29.99F
PETERSBURG       N/A     83  58  41 SE8       30.01F
$$



USA.gov is the U.S. government's official web portal to all federal, state and local government web resources and services.